EST,Max TemperatureF,Mean TemperatureF,Min TemperatureF,Max Dew PointF,MeanDew PointF,Min DewpointF,Max Humidity, Mean Humidity, Min Humidity, Max Sea Level PressureIn, Mean Sea Level PressureIn, Min Sea Level PressureIn, Max VisibilityMiles, Mean VisibilityMiles, Min VisibilityMiles, Max Wind SpeedMPH, Mean Wind SpeedMPH, Max Gust SpeedMPH,PrecipitationIn, CloudCover, Events, WindDirDegrees
2012-12-1,62,48,33,48,41,32,96,76,58,30.23,30.16,30.07,10,8,4,17,7,25,0.00,4,,163
2012-12-2,57,55,53,55,52,45,100,91,67,30.11,30.04,29.97,10,5,2,21,13,28,0.14,8,Rain,213
2012-12-3,64,58,53,59,55,53,100,93,77,30.13,30.08,29.99,10,4,0,18,7,,0.00,7,Fog,171
2012-12-4,61,51,39,55,47,37,100,87,75,30.14,30.02,29.97,10,7,2,21,14,24,0.20,6,Rain,257
2012-12-5,39,34,28,37,25,21,93,71,54,30.41,30.33,30.16,10,10,10,15,8,21,0.00,1,,14
2012-12-6,42,34,26,36,27,21,89,76,65,30.33,30.15,29.98,10,10,10,15,7,21,0.00,1,,141
2012-12-7,48,44,39,45,43,37,100,94,86,29.98,29.91,29.83,10,4,2,10,5,,0.25,8,Rain,156
2012-12-8,46,42,37,45,42,34,100,95,86,30.10,29.91,29.79,10,4,0,13,8,,0.07,8,Fog-Rain,10
2012-12-9,50,44,37,50,41,33,100,92,82,30.12,29.86,29.64,10,5,1,15,10,18,0.79,8,Rain,98
2012-12-10,48,40,33,48,37,31,100,92,73,29.87,29.71,29.63,10,6,2,18,11,24,0.07,8,Rain,269
2012-12-11,34,31,28,32,28,22,96,83,67,30.22,30.03,29.88,10,8,4,17,9,,0.00,6,,250
2012-12-12,41,32,23,29,24,21,92,78,58,30.40,30.35,30.23,10,10,6,9,7,,0.00,0,,191
2012-12-13,43,34,25,29,25,21,88,74,56,30.41,30.34,30.21,10,10,10,13,7,,0.00,0,,180
2012-12-14,48,39,30,32,28,25,82,70,50,30.27,30.22,30.16,10,10,10,9,7,,0.00,0,,189
2012-12-15,46,40,35,42,35,29,86,75,60,30.14,29.92,29.72,10,10,6,18,9,20,0.06,6,Rain,146
2012-12-16,57,51,45,50,47,42,90,85,72,29.71,29.66,29.61,10,10,8,18,10,25,0.00,6,,224
2012-12-17,44,42,39,41,37,35,93,84,76,29.75,29.68,29.59,10,9,4,10,6,,0.03,8,Rain,321
2012-12-18,42,38,34,36,33,30,96,85,65,29.81,29.73,29.61,10,7,4,15,9,20,0.09,6,Rain,266
2012-12-19,42,39,36,37,34,32,89,83,73,30.10,29.98,29.71,10,8,4,8,6,,0.00,7,,285
2012-12-20,48,40,32,46,37,27,93,84,72,29.98,29.43,29.18,10,7,2,32,17,50,0.67,8,Rain-Snow,164
2012-12-21,34,33,32,34,29,25,100,85,70,29.92,29.44,29.23,10,5,1,31,24,41,0.04,8,Rain-Snow,272
2012-12-22,33,28,23,25,23,20,88,77,66,30.13,30.07,29.95,10,10,10,20,14,29,0.00,6,,263
2012-12-23,37,29,21,28,23,17,92,80,70,30.03,29.97,29.93,10,9,4,8,5,,0.00,0,,213
2012-12-24,33,30,26,31,27,22,100,89,78,29.99,29.88,29.76,9,5,1,12,7,16,0.00,5,,49
2012-12-25,33,30,26,30,27,24,100,86,75,30.24,30.17,29.98,10,9,3,18,9,22,0.00,8,,20
2012-12-26,32,29,25,29,26,22,100,87,69,30.15,29.82,29.68,10,3,0,26,19,38,0.12,8,Fog-Snow,37
2012-12-27,28,19,10,25,19,7,100,86,80,30.18,30.05,29.84,10,8,0,15,11,21,0.00,6,Fog,279
2012-12-28,30,20,10,25,18,8,100,88,75,30.21,30.07,29.88,10,4,0,10,2,,0.00,3,Fog-Snow,105
2012-12-29,28,27,26,27,26,24,100,93,86,30.09,29.87,29.75,6,2,1,10,8,,0.08,8,Snow,321
2012-12-30,27,20,14,25,18,10,93,84,75,30.39,30.28,30.08,10,7,2,20,13,,0.00,5,Snow,242
2012-12-31,34,28,21,29,25,16,93,83,64,30.25,30.07,30.00,10,6,1,23,13,30,0.01,5,Snow,225